Torna al catalogo

FENGYUN 1C DEB *

AttivoPO
NORAD 47018·DEBRIS·🇨🇳 China

Lanciato May 10, 1999 da Taiyuan Satellite Launch Center

Loading…

Prossimi Passaggi (prossime 24 ore)

TLE

AggiornatoSource: Space-Track

Epoca: Sep 14, 2026, 03:41 UTC

1 47018U 99025FAU 26257.15393612  .00010611  00000-0  20820-2 0  9990
2 47018  98.9114   6.4609 0017235 230.8269 248.5547 14.62819517823290

Traccia FENGYUN 1C DEB * in tempo reale con AllMySat

Download on the App Store